FENGYUN 1C DEB, 29987

Orbit data source: Space-Track

FENGYUN 1C DEB, 29987 is space debris in SSO originally from a launch on Mon, 10 May 1999 UTC launched from the Taiyaun Space Center, China (TSC). Fengyun 1C debris stems from the Chinese weather satellite Fengyun-1C, which was intentionally destroyed by a Chinese anti-satellite missile in 2007. This event dramatically increased the amount of space debris, with thousands of trackable fragments posing hazards to satellites and human spaceflight. The Fengyun 1C debris cloud has become a focal point in discussions about space sustainability and the need for international regulations to prevent the creation of new debris.

Loading next visibility...
Identifier
29987, 1999-025LM
Orbit
SSO
Country
Flag of CNCN / PRC
Related business
Manufacturer
Unknown
Mission
Spacecraft
Bus & Motor
Unknown
Mass
Unknown
Launch date (UTC)
1999-05-10 (27 years ago)
Launch vehicle
Unknown
Launch site
Taiyaun Space Center, China (TSC)
Object type
Payload
Rocket body
Debris
Shape & HBR
Unknown shape, 0.1 m
Radar Cross Section
Medium (>0.1 m² and <1 m²)

Expand to show TLE details & history
Last TLE update: 3 days ago

TLE from 3 days ago
0 FENGYUN 1C DEB
1 29987U 99025LM  26255.68201912  .00002042  00000-0  10186-2 0  9995
2 29987  98.8844 152.0795 0076580 171.4911 244.2705 14.16492733  2474
Epoch: 2026-09-12T16:22Z
TLE epoch observation values (Epoch: 2026-09-12T16:22:06.451Z)
Latitude
54.10537°
Longitude
-97.54161°
Altitude
870.435 km
Speed
7.41 km/s
True Right ascension
09h 18m 41s
True Declination
53° 56' 40"
Sunlit
Object was in daylight at epoch
Visualization orbit readout
Latitude
Unknown
Longitude
Unknown
Altitude
Unknown
Speed
Unknown
Apparent Right ascension
Unknown
Apparent Declination
Unknown
Sunlit
N/A
Visualization observer readout
Local Sidereal Time
02:57:54
Azimuth
Unknown
Elevation
Unknown
Doppler factor
Unknown
Orbital elements
Apogee altitude
889.644 km
Perigee altitude
779.176 km
Semi-major axis
7,212.547 km
Eccentricity
0.00766
Inclination
98.8844°
RAAN
152.0795°
Arg. of periapsis
171.4911°
True anomaly
243.48326°
Mean anomaly
244.2705°
Eccentric anomaly
243.87655°
Mean motion
3.54332 °/min
Orbital period
101.6 mins
BSTAR
0.0010186
Loading maneuver chart data...
Computing Atmospheric mass density...
Loading historical data...
Loading historical data...
Loading historical data...
Loading historical data...
Loading historical data...
Loading historical data...
Loading historical data...

Documentation

Showing up to 5 results
|